Location: Austin
(30.3000°N, 97.7500°W)
Time: 12:09:38
(UTC-05:00)

Cosmos 2184 Rocket - Pass Details

Date: 08 April 2026
Orbit: 959 x 1001 km, 82.9° (Epoch: 11 April)

Event Time Altitude Azimuth Distance (km) Brightness Sun altitude
Rises 21:02:11 0° 178° (S) 3,701 6.8 -15.0°
Reaches altitude 10° 21:04:42 10° 176° (S) 2,757 6.1 -15.6°
Maximum altitude 21:11:00 72° 93° (E) 1,050 4.0 -16.8°
Drops below altitude 10° 21:17:21 10° 10° (N) 2,771 6.5 -18.1°
Sets 21:19:53 0° 9° (N) 3,721 7.2 -18.6°
